EWG8ST EDDL-LPMA

Flight info

Callsign EWG8ST
Flight time 3h 54m
Altitude 33000
Route MODRU2T MODRU Z717 MAS UM617 CIV N872 MEDIL DCT KOVIN DCT NIDUV DCT KIHVI UN872 DITAL/N0449F350 UN872 ERIGA UN741 AZFIC DCT GATMO DCT LOTEE DCT AGADO DCT UBANI DCT TUNAV DCT TELMU DCT PECKY DCT LIDRO
Aircraft A321/M-SDE3FGHIRWY/LB1

Departure

Time 2026-05-04 10:52
Airport Düsseldorf Airport (EDDL)

Arrival

Time 2026-05-04 14:47
Airport Cristiano Ronaldo International Airport (LPMA)
Time Latitude Longitude Altitude Speed Heading
2026-05-04 10:14 51.28155 6.76734 131 ft 0 kts 276°
2026-05-04 10:41 51.28154 6.76740 126 ft 3 kts 276°
2026-05-04 10:41 51.28154 6.76782 127 ft 4 kts 259°
2026-05-04 10:41 51.28162 6.76821 127 ft 4 kts 227°
2026-05-04 10:42 51.28180 6.76838 126 ft 3 kts 186°
2026-05-04 10:42 51.28203 6.76842 129 ft 2 kts 186°
2026-05-04 10:42 51.28229 6.76847 130 ft 4 kts 185°
2026-05-04 10:42 51.28256 6.76849 130 ft 4 kts 174°
2026-05-04 10:43 51.28280 6.76838 124 ft 3 kts 143°
2026-05-04 10:44 51.28330 6.76631 123 ft 0 kts 53°
2026-05-04 10:46 51.28331 6.76633 123 ft 1 kts 53°
2026-05-04 10:46 51.28343 6.76659 122 ft 4 kts 53°
2026-05-04 10:46 51.28372 6.76697 125 ft 7 kts 14°
2026-05-04 10:47 51.28419 6.76669 123 ft 8 kts 340°
2026-05-04 10:47 51.28462 6.76720 124 ft 8 kts 52°
2026-05-04 10:47 51.28498 6.76794 122 ft 9 kts 52°
2026-05-04 10:47 51.28540 6.76883 126 ft 11 kts 53°
2026-05-04 10:49 51.29065 6.77984 129 ft 21 kts 53°
2026-05-04 10:49 51.29150 6.78161 135 ft 19 kts 52°
2026-05-04 10:50 51.29221 6.78313 141 ft 15 kts 53°
2026-05-04 10:51 51.29274 6.77956 141 ft 91 kts 232°
2026-05-04 10:52 51.28762 6.76883 132 ft 149 kts 233°
2026-05-04 10:52 51.28076 6.75430 500 ft 168 kts 232°
2026-05-04 10:52 51.27370 6.73909 1195 ft 173 kts 233°
2026-05-04 10:54 51.25073 6.60778 4845 ft 237 kts 319°
2026-05-04 10:54 51.26396 6.59080 5191 ft 254 kts 320°
2026-05-04 10:56 51.36817 6.45880 9281 ft 284 kts 319°
2026-05-04 10:56 51.38272 6.43742 9885 ft 284 kts 305°
2026-05-04 10:56 51.39160 6.40953 10414 ft 282 kts 282°
2026-05-04 10:57 51.39286 6.37849 10940 ft 281 kts 259°
2026-05-04 10:57 51.38645 6.34912 11479 ft 282 kts 237°
2026-05-04 10:57 51.37336 6.32585 12023 ft 284 kts 218°
2026-05-04 10:57 51.35773 6.30704 12588 ft 286 kts 217°
2026-05-04 10:58 51.34175 6.28789 13172 ft 288 kts 217°
2026-05-04 10:58 51.32495 6.27035 13754 ft 290 kts 207°
2026-05-04 10:58 51.30614 6.25828 14256 ft 293 kts 201°
2026-05-04 10:58 51.28696 6.24706 14753 ft 295 kts 201°
2026-05-04 10:59 51.26763 6.23576 15229 ft 297 kts 201°
2026-05-04 10:59 51.24813 6.22438 15736 ft 300 kts 201°
2026-05-04 10:59 51.22847 6.21292 16223 ft 302 kts 201°
2026-05-04 10:59 51.20864 6.20137 16689 ft 304 kts 201°
2026-05-04 11:00 51.18866 6.18976 17152 ft 307 kts 201°
2026-05-04 11:01 51.04559 6.10416 20207 ft 317 kts 209°
2026-05-04 11:02 51.02736 6.08516 20628 ft 318 kts 218°
2026-05-04 11:02 51.01092 6.06086 20967 ft 323 kts 227°
2026-05-04 11:05 50.89276 5.51666 24445 ft 395 kts 251°
2026-05-04 11:06 50.88518 5.47479 24762 ft 396 kts 251°
2026-05-04 11:06 50.87757 5.43285 25067 ft 397 kts 251°
2026-05-04 11:06 50.86993 5.39080 25377 ft 398 kts 251°
2026-05-04 11:06 50.86224 5.34872 25666 ft 398 kts 250°
2026-05-04 11:08 50.80774 5.05248 27719 ft 405 kts 250°
2026-05-04 11:10 50.75128 4.75061 29431 ft 415 kts 250°
2026-05-04 11:12 50.69335 4.44536 31095 ft 413 kts 249°
2026-05-04 11:12 50.68504 4.40209 31352 ft 411 kts 249°
2026-05-04 11:12 50.67675 4.35900 31627 ft 410 kts 249°
2026-05-04 11:12 50.66847 4.31609 31909 ft 409 kts 249°
2026-05-04 11:13 50.66019 4.27325 32184 ft 407 kts 249°
2026-05-04 11:13 50.65193 4.23060 32447 ft 406 kts 249°
2026-05-04 11:13 50.64368 4.18809 32695 ft 405 kts 249°
2026-05-04 11:13 50.63546 4.14576 32926 ft 404 kts 249°
2026-05-04 11:16 50.50607 3.78645 32996 ft 389 kts 204°
2026-05-04 11:16 50.45629 3.75271 33003 ft 389 kts 205°
2026-05-04 11:17 50.40694 3.71907 33005 ft 390 kts 205°
2026-05-04 11:19 50.20775 3.58426 33012 ft 390 kts 204°
2026-05-04 11:19 50.15787 3.55070 33014 ft 390 kts 204°
2026-05-04 11:20 50.10792 3.51719 32999 ft 391 kts 203°
2026-05-04 11:20 50.05796 3.48372 33001 ft 391 kts 203°
2026-05-04 11:22 49.85759 3.35060 33006 ft 393 kts 203°
2026-05-04 11:23 49.80735 3.31738 33005 ft 393 kts 203°
2026-05-04 11:25 49.63127 3.20140 32990 ft 394 kts 202°
2026-05-04 11:25 49.58075 3.16840 32994 ft 395 kts 202°
2026-05-04 11:27 49.41090 2.90369 32988 ft 408 kts 236°
2026-05-04 11:28 49.38719 2.84032 32987 ft 409 kts 236°
2026-05-04 11:28 49.35876 2.76457 32991 ft 410 kts 236°
2026-05-04 11:29 49.33074 2.68903 32995 ft 410 kts 237°
2026-05-04 11:29 49.30377 2.61213 33024 ft 411 kts 238°
2026-05-04 11:33 49.11036 2.07462 32996 ft 413 kts 236°
2026-05-04 11:33 49.08415 1.99645 32992 ft 416 kts 241°
2026-05-04 11:34 49.06061 1.91761 32981 ft 416 kts 241°
2026-05-04 11:34 49.03641 1.83734 32979 ft 417 kts 241°
2026-05-04 11:35 49.01214 1.75705 33013 ft 417 kts 241°
2026-05-04 11:35 48.98781 1.67666 32993 ft 419 kts 241°
2026-05-04 11:36 48.96332 1.59607 32986 ft 420 kts 241°
2026-05-04 11:36 48.93865 1.51541 32985 ft 421 kts 241°
2026-05-04 11:37 48.91392 1.43462 32985 ft 421 kts 241°
2026-05-04 11:37 48.88911 1.35395 32987 ft 421 kts 241°
2026-05-04 11:38 48.86422 1.27329 33006 ft 422 kts 241°
2026-05-04 11:38 48.83919 1.19251 32997 ft 423 kts 241°
2026-05-04 11:39 48.81411 1.11168 32991 ft 424 kts 241°
2026-05-04 11:41 48.72197 0.83277 33001 ft 422 kts 235°
2026-05-04 11:41 48.69122 0.75695 32996 ft 422 kts 235°
2026-05-04 11:42 48.66044 0.68109 32993 ft 423 kts 235°
2026-05-04 11:42 48.62961 0.60533 32989 ft 423 kts 235°
2026-05-04 11:43 48.59869 0.52957 32988 ft 423 kts 235°
2026-05-04 11:43 48.56792 0.45439 32987 ft 423 kts 235°
2026-05-04 11:44 48.53695 0.37882 33002 ft 423 kts 235°
2026-05-04 11:44 48.50599 0.30347 32994 ft 422 kts 235°
2026-05-04 11:45 48.47497 0.22837 32992 ft 421 kts 235°
2026-05-04 11:45 48.44396 0.15353 32994 ft 421 kts 235°
2026-05-04 11:46 48.41295 0.07876 32994 ft 420 kts 235°
2026-05-04 11:46 48.38212 0.00464 32993 ft 420 kts 235°
2026-05-04 11:47 48.35060 -0.06927 33002 ft 420 kts 232°
2026-05-04 11:47 48.31597 -0.14000 32992 ft 419 kts 230°
2026-05-04 11:48 48.28019 -0.20928 32987 ft 420 kts 230°
2026-05-04 11:48 48.24485 -0.27902 32986 ft 420 kts 230°
2026-05-04 11:49 48.20942 -0.34873 32987 ft 420 kts 230°
2026-05-04 11:49 48.17393 -0.41818 32990 ft 420 kts 230°
2026-05-04 11:50 48.13866 -0.48704 32989 ft 419 kts 230°
2026-05-04 11:50 48.10313 -0.55620 32992 ft 419 kts 230°
2026-05-04 11:51 48.06748 -0.62542 32995 ft 419 kts 230°
2026-05-04 11:51 48.03178 -0.69450 33001 ft 420 kts 230°
2026-05-04 11:52 47.99602 -0.76344 32991 ft 419 kts 230°
2026-05-04 11:52 47.96039 -0.83219 32987 ft 418 kts 230°
2026-05-04 11:53 47.92477 -0.90070 33011 ft 418 kts 230°
2026-05-04 11:53 47.88912 -0.96900 33005 ft 417 kts 230°
2026-05-04 11:55 47.74701 -1.23971 32999 ft 415 kts 229°
2026-05-04 11:56 47.71137 -1.30727 33011 ft 415 kts 229°
2026-05-04 11:56 47.67568 -1.37472 33003 ft 415 kts 229°
2026-05-04 11:57 47.63993 -1.44204 32998 ft 416 kts 229°
2026-05-04 11:57 47.60408 -1.50933 32997 ft 415 kts 229°
2026-05-04 11:58 47.56682 -1.57458 32995 ft 414 kts 225°
2026-05-04 11:58 47.52786 -1.63746 33002 ft 414 kts 225°
2026-05-04 11:59 47.48880 -1.70012 33010 ft 415 kts 225°
2026-05-04 11:59 47.44997 -1.76334 32999 ft 416 kts 225°
2026-05-04 12:00 47.41154 -1.82648 32995 ft 416 kts 225°
2026-05-04 12:00 47.37275 -1.89003 33006 ft 417 kts 225°
2026-05-04 12:01 47.32965 -1.94616 33008 ft 413 kts 210°
2026-05-04 12:02 47.15775 -2.09980 33005 ft 414 kts 210°
2026-05-04 12:03 47.10868 -2.14342 32995 ft 415 kts 210°
2026-05-04 12:03 47.05917 -2.18735 32990 ft 416 kts 210°
2026-05-04 12:04 47.00957 -2.23116 32991 ft 417 kts 210°
2026-05-04 12:04 46.95991 -2.27499 32995 ft 417 kts 210°
2026-05-04 12:05 46.91014 -2.31881 33009 ft 417 kts 210°
2026-05-04 12:05 46.86365 -2.36896 33013 ft 418 kts 225°
2026-05-04 12:06 46.83021 -2.43879 33018 ft 422 kts 237°
2026-05-04 12:06 46.80092 -2.51307 33033 ft 422 kts 237°
2026-05-04 12:07 46.77146 -2.58735 33028 ft 423 kts 237°
2026-05-04 12:07 46.74218 -2.66109 33025 ft 423 kts 237°
2026-05-04 12:08 46.71266 -2.73553 33022 ft 423 kts 237°
2026-05-04 12:08 46.68319 -2.80968 33020 ft 423 kts 237°
2026-05-04 12:09 46.65352 -2.88385 33025 ft 424 kts 237°
2026-05-04 12:09 46.62369 -2.95809 33015 ft 426 kts 237°
2026-05-04 12:10 46.59375 -3.03241 33016 ft 427 kts 237°
2026-05-04 12:10 46.55984 -3.10252 33005 ft 423 kts 224°
2026-05-04 12:11 46.51543 -3.15738 33011 ft 422 kts 217°
2026-05-04 12:11 46.46974 -3.21102 33012 ft 422 kts 217°
2026-05-04 12:12 46.42406 -3.26470 33009 ft 423 kts 218°
2026-05-04 12:12 46.37805 -3.31861 33136 ft 427 kts 218°
2026-05-04 12:13 46.35485 -3.34570 33263 ft 429 kts 218°
2026-05-04 12:14 46.19091 -3.53633 34357 ft 434 kts 218°
2026-05-04 12:15 46.16732 -3.56361 34520 ft 435 kts 218°
2026-05-04 12:15 46.14373 -3.59086 34688 ft 434 kts 218°
2026-05-04 12:15 46.12012 -3.61814 34858 ft 434 kts 218°
2026-05-04 12:15 46.09653 -3.64536 34988 ft 434 kts 218°
2026-05-04 12:16 46.04937 -3.69974 35011 ft 434 kts 219°
2026-05-04 12:16 46.01393 -3.75079 35008 ft 434 kts 227°
2026-05-04 12:17 45.97346 -3.81543 35012 ft 435 kts 227°
2026-05-04 12:17 45.92647 -3.89054 35007 ft 435 kts 227°
2026-05-04 12:18 45.89259 -3.94456 35016 ft 435 kts 227°
2026-05-04 12:18 45.85200 -4.00896 35038 ft 434 kts 227°
2026-05-04 12:19 45.81162 -4.07269 35041 ft 434 kts 226°
2026-05-04 12:19 45.77096 -4.13671 35039 ft 434 kts 226°
2026-05-04 12:20 45.73034 -4.20066 35038 ft 434 kts 227°
2026-05-04 12:20 45.68976 -4.26459 35032 ft 434 kts 226°
2026-05-04 12:21 45.64913 -4.32835 35037 ft 433 kts 226°
2026-05-04 12:21 45.60843 -4.39186 35038 ft 433 kts 226°
2026-05-04 12:22 45.56770 -4.45531 35038 ft 433 kts 226°
2026-05-04 12:22 45.52713 -4.51876 35037 ft 433 kts 226°
2026-05-04 12:23 45.48665 -4.58161 35036 ft 433 kts 226°
2026-05-04 12:23 45.44584 -4.64469 35038 ft 433 kts 226°
2026-05-04 12:24 45.40508 -4.70769 35047 ft 432 kts 226°
2026-05-04 12:24 45.36429 -4.77064 35043 ft 432 kts 226°
2026-05-04 12:25 45.32353 -4.83343 35040 ft 432 kts 226°
2026-05-04 12:25 45.28280 -4.89610 35040 ft 432 kts 226°
2026-05-04 12:26 45.24198 -4.95863 35043 ft 432 kts 226°
2026-05-04 12:26 45.20111 -5.02096 35049 ft 431 kts 226°
2026-05-04 12:27 45.16024 -5.08333 35043 ft 432 kts 226°
2026-05-04 12:27 45.11953 -5.14525 35043 ft 432 kts 226°
2026-05-04 12:28 45.07850 -5.20753 35041 ft 432 kts 226°
2026-05-04 12:28 45.03747 -5.26971 35042 ft 432 kts 226°
2026-05-04 12:29 44.99642 -5.33182 35044 ft 432 kts 226°
2026-05-04 12:29 44.95534 -5.39378 35050 ft 432 kts 226°
2026-05-04 12:30 44.91412 -5.45571 35051 ft 433 kts 226°
2026-05-04 12:30 44.87283 -5.51764 35048 ft 433 kts 226°
2026-05-04 12:31 44.83155 -5.57957 35041 ft 433 kts 226°
2026-05-04 12:31 44.79027 -5.64126 35041 ft 433 kts 226°
2026-05-04 12:32 44.72852 -5.73326 35052 ft 433 kts 226°
2026-05-04 12:33 44.68713 -5.79468 35047 ft 433 kts 226°
2026-05-04 12:33 44.64420 -5.85397 35047 ft 433 kts 220°
2026-05-04 12:34 44.59797 -5.90833 35045 ft 433 kts 220°
2026-05-04 12:34 44.55174 -5.96269 35048 ft 434 kts 220°
2026-05-04 12:35 44.50548 -6.01695 35051 ft 434 kts 220°
2026-05-04 12:35 44.45950 -6.07081 35048 ft 434 kts 220°
2026-05-04 12:36 44.41316 -6.12490 35052 ft 434 kts 220°
2026-05-04 12:36 44.36676 -6.17898 35053 ft 434 kts 220°
2026-05-04 12:37 44.32029 -6.23292 35055 ft 435 kts 220°
2026-05-04 12:37 44.27377 -6.28682 35054 ft 435 kts 220°
2026-05-04 12:38 44.22722 -6.34067 35049 ft 435 kts 220°
2026-05-04 12:38 44.18070 -6.39442 35057 ft 434 kts 220°
2026-05-04 12:39 44.13412 -6.44818 35056 ft 434 kts 220°
2026-05-04 12:39 44.08750 -6.50179 35065 ft 435 kts 220°
2026-05-04 12:40 44.04083 -6.55526 35060 ft 435 kts 220°
2026-05-04 12:40 43.99404 -6.60876 35053 ft 435 kts 220°
2026-05-04 12:41 43.94735 -6.66216 35056 ft 435 kts 220°
2026-05-04 12:41 43.90060 -6.71557 35061 ft 435 kts 220°
2026-05-04 12:42 43.85391 -6.76876 35061 ft 435 kts 220°
2026-05-04 12:42 43.80736 -6.82155 35056 ft 434 kts 220°
2026-05-04 12:43 43.76056 -6.87451 35068 ft 434 kts 221°
2026-05-04 12:43 43.71374 -6.92752 35063 ft 435 kts 221°
2026-05-04 12:44 43.66717 -6.98007 35063 ft 435 kts 220°
2026-05-04 12:44 43.62025 -7.03287 35065 ft 435 kts 220°
2026-05-04 12:45 43.57337 -7.08558 35061 ft 434 kts 221°
2026-05-04 12:45 43.52643 -7.13823 35068 ft 434 kts 221°
2026-05-04 12:46 43.47955 -7.19073 35066 ft 434 kts 221°
2026-05-04 12:46 43.43275 -7.24313 35069 ft 434 kts 221°
2026-05-04 12:47 43.38587 -7.29543 35059 ft 434 kts 221°
2026-05-04 12:47 43.33923 -7.34722 35067 ft 434 kts 221°
2026-05-04 12:48 43.29223 -7.39933 35072 ft 434 kts 221°
2026-05-04 12:48 43.24519 -7.45133 35077 ft 434 kts 221°
2026-05-04 12:49 43.19818 -7.50333 35074 ft 434 kts 221°
2026-05-04 12:49 43.15125 -7.55521 35070 ft 433 kts 221°
2026-05-04 12:50 43.10426 -7.60695 35088 ft 434 kts 221°
2026-05-04 12:50 43.05723 -7.65855 35081 ft 432 kts 221°
2026-05-04 12:51 43.01029 -7.71005 35080 ft 432 kts 221°
2026-05-04 12:51 42.96335 -7.76146 35068 ft 433 kts 222°
2026-05-04 12:52 42.91641 -7.81280 35073 ft 432 kts 221°
2026-05-04 12:52 42.86944 -7.86399 35078 ft 432 kts 221°
2026-05-04 12:53 42.82277 -7.91475 35081 ft 432 kts 221°
2026-05-04 12:53 42.77571 -7.96573 35084 ft 432 kts 221°
2026-05-04 12:54 42.72871 -8.01665 35065 ft 431 kts 222°
2026-05-04 12:54 42.68181 -8.06739 35084 ft 431 kts 222°
2026-05-04 12:55 42.63486 -8.11804 35089 ft 430 kts 222°
2026-05-04 12:55 42.58799 -8.16858 35089 ft 430 kts 222°
2026-05-04 12:56 42.54113 -8.21892 35097 ft 430 kts 222°
2026-05-04 12:56 42.49426 -8.26915 35095 ft 429 kts 222°
2026-05-04 12:57 42.44738 -8.31934 35092 ft 429 kts 222°
2026-05-04 12:57 42.40050 -8.36948 35091 ft 429 kts 222°
2026-05-04 12:58 42.35357 -8.41946 35092 ft 430 kts 222°
2026-05-04 12:58 42.30687 -8.46911 35104 ft 430 kts 222°
2026-05-04 12:59 42.25998 -8.51910 35103 ft 429 kts 222°
2026-05-04 12:59 42.21304 -8.56894 35108 ft 429 kts 222°
2026-05-04 13:00 42.16607 -8.61862 35098 ft 429 kts 222°
2026-05-04 13:00 42.11919 -8.66814 35104 ft 428 kts 222°
2026-05-04 13:01 42.07261 -8.71725 35077 ft 428 kts 223°
2026-05-04 13:01 42.02572 -8.76654 35098 ft 428 kts 222°
2026-05-04 13:02 41.97885 -8.81573 35117 ft 427 kts 222°
2026-05-04 13:02 41.93195 -8.86494 35111 ft 427 kts 222°
2026-05-04 13:03 41.88506 -8.91395 35111 ft 427 kts 222°
2026-05-04 13:03 41.83793 -8.96240 35099 ft 427 kts 221°
2026-05-04 13:04 41.79016 -9.00974 35117 ft 426 kts 221°
2026-05-04 13:04 41.74273 -9.05649 35119 ft 426 kts 221°
2026-05-04 13:05 41.69513 -9.10356 35125 ft 425 kts 221°
2026-05-04 13:05 41.64750 -9.15076 35127 ft 425 kts 221°
2026-05-04 13:06 41.59994 -9.19784 35108 ft 425 kts 221°
2026-05-04 13:06 41.55241 -9.24481 35122 ft 425 kts 221°
2026-05-04 13:07 41.50501 -9.29183 35125 ft 424 kts 222°
2026-05-04 13:07 41.45790 -9.33854 35134 ft 424 kts 222°
2026-05-04 13:08 41.41051 -9.38540 35136 ft 424 kts 221°
2026-05-04 13:08 41.36314 -9.43215 35114 ft 423 kts 222°
2026-05-04 13:09 41.31577 -9.47871 35115 ft 423 kts 222°
2026-05-04 13:09 41.27639 -9.51736 35130 ft 423 kts 222°
2026-05-04 13:10 41.22906 -9.56374 35134 ft 423 kts 222°
2026-05-04 13:10 41.18173 -9.61011 35131 ft 423 kts 222°
2026-05-04 13:11 41.13409 -9.65591 35117 ft 423 kts 221°
2026-05-04 13:11 41.08624 -9.70137 35129 ft 423 kts 221°
2026-05-04 13:12 41.03844 -9.74673 35137 ft 423 kts 221°
2026-05-04 13:12 40.99063 -9.79222 35140 ft 423 kts 221°
2026-05-04 13:13 40.94287 -9.83767 35126 ft 423 kts 221°
2026-05-04 13:13 40.89544 -9.88271 35109 ft 423 kts 221°
2026-05-04 13:14 40.84760 -9.92803 35124 ft 423 kts 221°
2026-05-04 13:14 40.79964 -9.97335 35134 ft 423 kts 221°
2026-05-04 13:15 40.75171 -10.01854 35141 ft 424 kts 221°
2026-05-04 13:15 40.70375 -10.06368 35144 ft 424 kts 221°
2026-05-04 13:16 40.65575 -10.10878 35126 ft 423 kts 221°
2026-05-04 13:16 40.60772 -10.15374 35140 ft 424 kts 221°
2026-05-04 13:17 40.55975 -10.19870 35146 ft 423 kts 221°
2026-05-04 13:17 40.51174 -10.24367 35137 ft 424 kts 222°
2026-05-04 13:18 40.46366 -10.28853 35148 ft 424 kts 222°
2026-05-04 13:18 40.41556 -10.33329 35133 ft 424 kts 222°
2026-05-04 13:19 40.36748 -10.37811 35142 ft 424 kts 222°
2026-05-04 13:19 40.31964 -10.42256 35148 ft 424 kts 222°
2026-05-04 13:20 40.27148 -10.46715 35151 ft 424 kts 222°
2026-05-04 13:20 40.22329 -10.51160 35153 ft 424 kts 222°
2026-05-04 13:21 40.17507 -10.55613 35153 ft 424 kts 222°
2026-05-04 13:21 40.12685 -10.60056 35148 ft 424 kts 222°
2026-05-04 13:22 40.07863 -10.64495 35154 ft 424 kts 222°
2026-05-04 13:22 40.03039 -10.68933 35154 ft 424 kts 222°
2026-05-04 13:23 39.98242 -10.73338 35160 ft 424 kts 222°
2026-05-04 13:23 39.93406 -10.77758 35137 ft 424 kts 222°
2026-05-04 13:24 39.88540 -10.82205 35150 ft 425 kts 222°
2026-05-04 13:24 39.83728 -10.86595 35157 ft 425 kts 222°
2026-05-04 13:25 39.76462 -10.93193 35163 ft 425 kts 222°
2026-05-04 13:25 39.71623 -10.97594 35126 ft 425 kts 222°
2026-05-04 13:26 39.66770 -11.01997 35143 ft 425 kts 221°
2026-05-04 13:26 39.61907 -11.06387 35154 ft 426 kts 221°
2026-05-04 13:27 39.57051 -11.10777 35161 ft 426 kts 222°
2026-05-04 13:27 39.52213 -11.15142 35164 ft 426 kts 221°
2026-05-04 13:28 39.47343 -11.19517 35148 ft 426 kts 221°
2026-05-04 13:28 39.42474 -11.23880 35165 ft 426 kts 221°
2026-05-04 13:29 39.37602 -11.28249 35165 ft 426 kts 221°
2026-05-04 13:29 39.32730 -11.32617 35151 ft 426 kts 222°
2026-05-04 13:30 39.27859 -11.36981 35157 ft 426 kts 222°
2026-05-04 13:30 39.22980 -11.41333 35134 ft 426 kts 222°
2026-05-04 13:31 39.18104 -11.45684 35147 ft 426 kts 222°
2026-05-04 13:31 39.13225 -11.50035 35157 ft 427 kts 221°
2026-05-04 13:32 39.08339 -11.54371 35164 ft 427 kts 221°
2026-05-04 13:32 39.03448 -11.58706 35169 ft 427 kts 221°
2026-05-04 13:33 38.98591 -11.63008 35147 ft 426 kts 221°
2026-05-04 13:33 38.93702 -11.67324 35160 ft 427 kts 221°
2026-05-04 13:34 38.88802 -11.71633 35170 ft 427 kts 221°
2026-05-04 13:34 38.83903 -11.75946 35177 ft 426 kts 221°
2026-05-04 13:35 38.76563 -11.82405 35182 ft 427 kts 221°
2026-05-04 13:36 38.71666 -11.86703 35163 ft 426 kts 221°
2026-05-04 13:36 38.66766 -11.90992 35176 ft 427 kts 221°
2026-05-04 13:37 38.61861 -11.95276 35177 ft 426 kts 221°
2026-05-04 13:37 38.56959 -11.99545 35184 ft 426 kts 221°
2026-05-04 13:38 38.52066 -12.03807 35182 ft 426 kts 221°
2026-05-04 13:38 38.47175 -12.08070 35149 ft 425 kts 221°
2026-05-04 13:39 38.42315 -12.12281 35169 ft 425 kts 221°
2026-05-04 13:39 38.37412 -12.16529 35179 ft 425 kts 221°
2026-05-04 13:40 38.32517 -12.20760 35186 ft 425 kts 221°
2026-05-04 13:40 38.27614 -12.24988 35188 ft 425 kts 221°
2026-05-04 13:41 38.22716 -12.29213 35160 ft 425 kts 221°
2026-05-04 13:41 38.17827 -12.33424 35175 ft 424 kts 221°
2026-05-04 13:42 38.10495 -12.39726 35189 ft 424 kts 221°
2026-05-04 13:42 38.05629 -12.43902 35177 ft 424 kts 221°
2026-05-04 13:43 38.00741 -12.48087 35183 ft 424 kts 221°
2026-05-04 13:43 37.95844 -12.52270 35168 ft 424 kts 220°
2026-05-04 13:44 37.90954 -12.56438 35192 ft 423 kts 220°
2026-05-04 13:44 37.86065 -12.60600 35196 ft 423 kts 220°
2026-05-04 13:45 37.81182 -12.64759 35200 ft 423 kts 220°
2026-05-04 13:45 37.76292 -12.68904 35200 ft 423 kts 220°
2026-05-04 13:46 37.71397 -12.73043 35200 ft 423 kts 220°
2026-05-04 13:46 37.66511 -12.77185 35186 ft 423 kts 220°
2026-05-04 13:47 37.61618 -12.81316 35194 ft 423 kts 220°
2026-05-04 13:47 37.56758 -12.85417 35199 ft 423 kts 220°
2026-05-04 13:48 37.51867 -12.89541 35202 ft 423 kts 220°
2026-05-04 13:48 37.46981 -12.93660 35176 ft 423 kts 219°
2026-05-04 13:49 37.42086 -12.97762 35193 ft 422 kts 220°
2026-05-04 13:49 37.37198 -13.01864 35204 ft 422 kts 219°
2026-05-04 13:50 37.32306 -13.05959 35205 ft 422 kts 219°
2026-05-04 13:50 37.27423 -13.10038 35205 ft 422 kts 219°
2026-05-04 13:51 37.22538 -13.14111 35196 ft 421 kts 219°
2026-05-04 13:51 37.17650 -13.18166 35183 ft 421 kts 219°
2026-05-04 13:52 37.10361 -13.24217 35202 ft 420 kts 219°
2026-05-04 13:53 37.05488 -13.28268 35202 ft 420 kts 219°
2026-05-04 13:53 37.00616 -13.32309 35203 ft 420 kts 219°
2026-05-04 13:54 36.93311 -13.38348 35198 ft 420 kts 218°
2026-05-04 13:55 36.86003 -13.44382 35204 ft 419 kts 218°
2026-05-04 13:55 36.78699 -13.50385 35188 ft 419 kts 218°
2026-05-04 13:56 36.73832 -13.54371 35201 ft 419 kts 218°
2026-05-04 13:57 36.67352 -13.59692 35187 ft 418 kts 219°
2026-05-04 13:58 36.57628 -13.67644 35203 ft 418 kts 219°
2026-05-04 13:58 36.50335 -13.73587 35206 ft 417 kts 219°
2026-05-04 13:59 36.45478 -13.77545 35205 ft 417 kts 219°
2026-05-04 14:00 36.38240 -13.83423 35202 ft 415 kts 220°
2026-05-04 14:00 36.31002 -13.89288 35203 ft 413 kts 220°
2026-05-04 14:01 36.26184 -13.93185 35209 ft 413 kts 220°
2026-05-04 14:02 36.18969 -13.99018 35206 ft 413 kts 220°
2026-05-04 14:02 36.14164 -14.02892 35190 ft 412 kts 219°
2026-05-04 14:03 36.09354 -14.06763 35204 ft 412 kts 219°
2026-05-04 14:03 36.04578 -14.10595 35206 ft 412 kts 219°
2026-05-04 14:04 35.97376 -14.16368 35205 ft 411 kts 219°
2026-05-04 14:04 35.92574 -14.20212 35205 ft 411 kts 219°
2026-05-04 14:05 35.85380 -14.25957 35184 ft 410 kts 219°
2026-05-04 14:06 35.80583 -14.29788 35190 ft 410 kts 219°
2026-05-04 14:06 35.75794 -14.33613 35195 ft 411 kts 219°
2026-05-04 14:07 35.71028 -14.37402 35201 ft 411 kts 219°
2026-05-04 14:07 35.66222 -14.41217 35209 ft 411 kts 219°
2026-05-04 14:08 35.61417 -14.45031 35185 ft 411 kts 219°
2026-05-04 14:08 35.56613 -14.48839 35191 ft 411 kts 219°
2026-05-04 14:09 35.49389 -14.54542 35209 ft 411 kts 219°
2026-05-04 14:10 35.42205 -14.60208 35203 ft 411 kts 218°
2026-05-04 14:10 35.37392 -14.63999 35203 ft 411 kts 218°
2026-05-04 14:11 35.32580 -14.67785 35179 ft 411 kts 218°
2026-05-04 14:11 35.25368 -14.73452 35195 ft 410 kts 218°
2026-05-04 14:12 35.20566 -14.77206 35198 ft 410 kts 218°
2026-05-04 14:13 35.13364 -14.82830 35203 ft 410 kts 218°
2026-05-04 14:13 35.08552 -14.86582 35202 ft 410 kts 218°
2026-05-04 14:14 35.03781 -14.90308 35202 ft 409 kts 218°
2026-05-04 14:14 34.96578 -14.95910 35196 ft 409 kts 218°
2026-05-04 14:15 34.86989 -15.03362 35197 ft 409 kts 218°
2026-05-04 14:16 34.79789 -15.08923 35175 ft 408 kts 218°
2026-05-04 14:17 34.72600 -15.14485 35193 ft 408 kts 218°
2026-05-04 14:18 34.65408 -15.20033 35193 ft 408 kts 218°
2026-05-04 14:19 34.55829 -15.27419 35191 ft 408 kts 217°
2026-05-04 14:19 34.51031 -15.31094 35178 ft 408 kts 217°
2026-05-04 14:20 34.46238 -15.34767 35182 ft 408 kts 217°
2026-05-04 14:20 34.41486 -15.38399 34877 ft 404 kts 217°
2026-05-04 14:21 34.36764 -15.42001 34364 ft 397 kts 217°
2026-05-04 14:21 34.34441 -15.43772 33911 ft 393 kts 217°
2026-05-04 14:21 34.32141 -15.45523 33477 ft 387 kts 218°
2026-05-04 14:21 34.29876 -15.47248 33047 ft 382 kts 218°
2026-05-04 14:22 34.27644 -15.48950 32627 ft 377 kts 218°
2026-05-04 14:22 34.25440 -15.50628 32209 ft 373 kts 218°
2026-05-04 14:22 34.23262 -15.52290 31787 ft 368 kts 217°
2026-05-04 14:22 34.21113 -15.53930 31355 ft 364 kts 217°
2026-05-04 14:23 34.16846 -15.57251 30036 ft 369 kts 218°
2026-05-04 14:23 34.14664 -15.58982 28975 ft 380 kts 218°
2026-05-04 14:23 34.12444 -15.60748 28246 ft 382 kts 218°
2026-05-04 14:24 34.10222 -15.62510 27641 ft 381 kts 217°
2026-05-04 14:24 34.08008 -15.64260 27084 ft 379 kts 217°
2026-05-04 14:24 34.05806 -15.65997 26546 ft 377 kts 217°
2026-05-04 14:24 34.03623 -15.67716 26018 ft 374 kts 217°
2026-05-04 14:25 34.01445 -15.69427 25496 ft 372 kts 217°
2026-05-04 14:25 33.97156 -15.72785 24498 ft 368 kts 216°
2026-05-04 14:25 33.95007 -15.74468 24010 ft 366 kts 216°
2026-05-04 14:26 33.92875 -15.76140 23485 ft 365 kts 216°
2026-05-04 14:26 33.90756 -15.77804 22923 ft 363 kts 216°
2026-05-04 14:26 33.88648 -15.79458 22392 ft 360 kts 216°
2026-05-04 14:26 33.86551 -15.81098 21871 ft 358 kts 216°
2026-05-04 14:27 33.84467 -15.82725 21356 ft 356 kts 216°
2026-05-04 14:27 33.82398 -15.84339 20833 ft 353 kts 216°
2026-05-04 14:27 33.80345 -15.85941 20318 ft 351 kts 216°
2026-05-04 14:27 33.78299 -15.87539 19819 ft 348 kts 215°
2026-05-04 14:28 33.76272 -15.89120 19325 ft 347 kts 215°
2026-05-04 14:28 33.74279 -15.90670 18853 ft 344 kts 215°
2026-05-04 14:28 33.72273 -15.92231 18373 ft 342 kts 216°
2026-05-04 14:28 33.70288 -15.93778 17844 ft 339 kts 216°
2026-05-04 14:29 33.66345 -15.96858 16773 ft 336 kts 217°
2026-05-04 14:29 33.62460 -15.99884 15777 ft 331 kts 214°
2026-05-04 14:30 33.60528 -16.01385 15230 ft 331 kts 215°
2026-05-04 14:30 33.58605 -16.02878 14742 ft 328 kts 216°
2026-05-04 14:30 33.54800 -16.05831 13726 ft 325 kts 214°
2026-05-04 14:31 33.52905 -16.07298 13227 ft 322 kts 214°
2026-05-04 14:31 33.49238 -16.10138 12660 ft 305 kts 215°
2026-05-04 14:32 33.45755 -16.12831 12104 ft 293 kts 214°
2026-05-04 14:32 33.44079 -16.14128 11838 ft 289 kts 214°
2026-05-04 14:32 33.42400 -16.15428 11555 ft 286 kts 213°
2026-05-04 14:32 33.40724 -16.16723 11272 ft 285 kts 214°
2026-05-04 14:33 33.39051 -16.18014 10987 ft 288 kts 214°
2026-05-04 14:33 33.37371 -16.19311 10703 ft 287 kts 214°
2026-05-04 14:33 33.35696 -16.20603 10416 ft 286 kts 214°
2026-05-04 14:33 33.34023 -16.21892 10118 ft 285 kts 214°
2026-05-04 14:34 33.32362 -16.23172 9825 ft 283 kts 214°
2026-05-04 14:34 33.30708 -16.24450 9511 ft 282 kts 214°
2026-05-04 14:34 33.29062 -16.25722 9201 ft 281 kts 214°
2026-05-04 14:34 33.27426 -16.26984 8896 ft 280 kts 213°
2026-05-04 14:35 33.25791 -16.28241 8589 ft 278 kts 214°
2026-05-04 14:35 33.24170 -16.29484 8288 ft 277 kts 213°
2026-05-04 14:35 33.22551 -16.30726 7985 ft 275 kts 213°
2026-05-04 14:35 33.20944 -16.31959 7691 ft 274 kts 213°
2026-05-04 14:36 33.19350 -16.33184 7393 ft 272 kts 213°
2026-05-04 14:36 33.17758 -16.34408 7105 ft 271 kts 213°
2026-05-04 14:36 33.16173 -16.35628 6816 ft 272 kts 213°
2026-05-04 14:36 33.14604 -16.36832 6531 ft 271 kts 213°
2026-05-04 14:37 33.13021 -16.38044 6227 ft 270 kts 212°
2026-05-04 14:37 33.11443 -16.39253 5937 ft 269 kts 213°
2026-05-04 14:37 33.09873 -16.40455 5686 ft 268 kts 213°
2026-05-04 14:37 33.08311 -16.41653 5444 ft 267 kts 212°
2026-05-04 14:38 33.06753 -16.42847 5196 ft 265 kts 212°
2026-05-04 14:38 33.05202 -16.44033 4951 ft 264 kts 212°
2026-05-04 14:38 33.03660 -16.45212 4679 ft 264 kts 212°
2026-05-04 14:38 33.02120 -16.46390 4434 ft 262 kts 212°
2026-05-04 14:39 33.00583 -16.47565 4212 ft 262 kts 212°
2026-05-04 14:39 32.99050 -16.48736 4005 ft 261 kts 212°
2026-05-04 14:39 32.97525 -16.49901 3809 ft 260 kts 212°
2026-05-04 14:40 32.94495 -16.52214 3427 ft 258 kts 212°
2026-05-04 14:40 32.92980 -16.53370 3254 ft 259 kts 212°
2026-05-04 14:40 32.91474 -16.54520 3096 ft 253 kts 212°
2026-05-04 14:40 32.90029 -16.55621 2997 ft 240 kts 212°
2026-05-04 14:41 32.88673 -16.56654 2998 ft 225 kts 212°
2026-05-04 14:41 32.87362 -16.57653 3001 ft 224 kts 212°
2026-05-04 14:41 32.84890 -16.59691 3013 ft 203 kts 221°
2026-05-04 14:42 32.82896 -16.61823 2940 ft 187 kts 221°
2026-05-04 14:42 32.81959 -16.62818 2857 ft 176 kts 221°
2026-05-04 14:42 32.81055 -16.63777 2831 ft 172 kts 220°
2026-05-04 14:43 32.80164 -16.64727 2680 ft 172 kts 220°
2026-05-04 14:43 32.79284 -16.65669 2449 ft 167 kts 221°
2026-05-04 14:43 32.78461 -16.66549 2258 ft 151 kts 221°
2026-05-04 14:43 32.77715 -16.67344 2083 ft 143 kts 221°
2026-05-04 14:44 32.76972 -16.68131 1918 ft 140 kts 219°
2026-05-04 14:44 32.76254 -16.68884 1793 ft 139 kts 220°
2026-05-04 14:44 32.75525 -16.69640 1598 ft 139 kts 219°
2026-05-04 14:44 32.74837 -16.70450 1337 ft 140 kts 233°
2026-05-04 14:45 32.74302 -16.71421 1275 ft 141 kts 237°
2026-05-04 14:45 32.73781 -16.72416 1154 ft 143 kts 234°
2026-05-04 14:45 32.73192 -16.73359 1038 ft 143 kts 228°
2026-05-04 14:45 32.72534 -16.74244 853 ft 144 kts 222°
2026-05-04 14:46 32.71809 -16.75072 644 ft 146 kts 221°
2026-05-04 14:46 32.71088 -16.75934 380 ft 148 kts 220°
2026-05-04 14:46 32.70363 -16.76774 209 ft 144 kts 223°
2026-05-04 14:46 32.69924 -16.77285 187 ft 114 kts 224°
2026-05-04 14:47 32.69558 -16.77713 175 ft 50 kts 224°
2026-05-04 14:47 32.69368 -16.77937 170 ft 18 kts 225°
2026-05-04 14:47 32.69292 -16.77942 169 ft 10 kts 115°
2026-05-04 14:47 32.69289 -16.77869 169 ft 6 kts 82°
2026-05-04 14:48 32.69302 -16.77841 169 ft 4 kts 51°
2026-05-04 14:48 32.69308 -16.77834 169 ft 2 kts 49°
2026-05-04 14:48 32.69317 -16.77822 169 ft 2 kts 49°
2026-05-04 14:48 32.69327 -16.77809 169 ft 3 kts 46°
2026-05-04 14:49 32.69349 -16.77782 169 ft 6 kts 45°
2026-05-04 14:49 32.69387 -16.77736 169 ft 9 kts 46°
2026-05-04 14:49 32.69437 -16.77674 169 ft 11 kts 46°
2026-05-04 14:49 32.69443 -16.77626 169 ft 6 kts 127°
2026-05-04 14:50 32.69421 -16.77601 169 ft 2 kts 137°
2026-05-04 14:50 32.69413 -16.77592 169 ft 0 kts 137°